Regional Weather Roundup
Issued by NWS

Home | Current Version | Previous Version | Text Only | Print | Product List | Glossary On
Versions: 1 2 3 4 5 6 7 8 9 10 11 12 13 14 15 16 17 18 19 20 21 22 23 24 25 26 27 28 29 30 31 32 33 34 35 36 37 38 39 40 41 42 43 44 45 46 47 48 49 50
000
ASUS43 KMKX 250221
RWRWI

WISCONSIN REGIONAL WEATHER ROUNDUP
NATIONAL WEATHER SERVICE MILWAUKEE/SULLIVAN WI
900 PM CDT SAT SEP 24 2016

NOTE: "FAIR" INDICATES FEW OR NO CLOUDS BELOW 12,000 FEET WITH NO
SIGNIFICANT WEATHER AND/OR OBSTRUCTIONS TO VISIBILITY.

WIZ001-002-006>008-014>016-023>028-250300-
NORTHWEST WISCONSIN

CITY           SKY/WX    TMP DP  RH WIND       PRES   REMARKS
SUPERIOR ARPT  CLOUDY    59  58  96 E7        30.06F
ASHLAND        CLOUDY    62  60  93 E5        30.10S
HAYWARD        CLOUDY    64  58  80 VRB6      30.09F
SIREN          CLOUDY    65  60  85 SE10      30.05F
CUMBERLAND     CLOUDY    63  59  88 SE14      30.08F
RICE LAKE      CLOUDY    64  59  83 SE16G22   30.09F
CHETEK         NOT AVBL
LADYSMITH      CLOUDY    65  58  78 SE8       30.14F
EAU CLAIRE     CLOUDY    65  60  84 SE13      30.09F
MENOMONIE      CLOUDY    65  61  87 E10       30.08S
NEW RICHMOND   CLOUDY    64  60  86 SE8G16    30.05F
OSCEOLA        CLOUDY    65  65 100 SE10G20   30.06F
$$

WIZ003>005-009-010-017-018-250300-
NORTH CENTRAL WISCONSIN

CITY           SKY/WX    TMP DP  RH WIND       PRES   REMARKS
MANITOWISH WTR NOT AVBL
ARBOR VITAE    CLEAR     59  53  78 SE5       30.18R
WOODRUFF       CLEAR     59  53  78 SE5       30.18R
RHINELANDER    PTCLDY    58  53  84 SE5       30.19R
EAGLE RIVER    MOCLDY    59  49  70 SE6       30.18S
LAND O LAKES   MOCLDY    60  50  71 SE5       30.20R
PHILLIPS       CLOUDY    61  56  82 E6        30.15S
TOMAHAWK       CLOUDY    57  53  86 CALM      30.19R
MEDFORD        CLOUDY    61  57  87 SE6       30.16S
MERRILL        CLOUDY    61  55  78 SE6       30.19R
$$

WIZ029-030-035-036-043>047-250300-
CENTRAL WISCONSIN

CITY           SKY/WX    TMP DP  RH WIND       PRES   REMARKS
WAUSAU         CLOUDY    62  52  69 SE10      30.16R
MOSINEE        CLOUDY    61  55  82 E9        30.18R
MARSHFIELD     MOCLDY    62  56  80 E7        30.15R
STEVENS POINT  CLOUDY    61  55  79 E8        30.18R
WAUPACA        MOCLDY    63  58  84 E7        30.18S
WAUTOMA        CLOUDY    63  58  83 E7        30.18R
WISC RAPIDS    LGT RAIN  63  59  87 SE8       30.17R
CAMP DOUGLAS   CLEAR     59  59  97 E6        30.13S
$$

WIZ011>013-019>022-031-037>040-048>050-250300-
NORTHEAST WISCONSIN

CITY           SKY/WX    TMP DP  RH WIND       PRES   REMARKS
ANTIGO         CLEAR     56  52  85 CALM      30.20R
SHAWANO        CLOUDY    62  53  74 SE3       30.20S
OCONTO         NOT AVBL
STURGEON BAY   PTCLDY    55  52  89 CALM      30.23R
GREEN BAY      CLOUDY    61  56  83 E6        30.20R
MANITOWOC      CLOUDY    58  55  90 NW5       30.21R
APPLETON       MOCLDY    61  52  72 E6        30.19R
CLINTONVILLE   NOT AVBL
OSHKOSH        CLOUDY    63  56  78 E7        30.18R
$$

WIZ032>034-041-042-053>061-250300-
SOUTHWEST WISCONSIN

CITY           SKY/WX    TMP DP  RH WIND       PRES   REMARKS
LA CROSSE      CLOUDY    69  63  81 E7        30.08F
SPARTA         PTCLDY    62  60  94 CALM      30.12S
VIROQUA        CLEAR     62  62  99 E3        30.11S
BOSCOBEL       CLEAR     65  63  93 NE6       30.09S
PRAIRIE DU CHI CLEAR     67  64  88 E3        30.07S
PLATTEVILLE    CLEAR     67  66  97 E10       30.10R
$$

WIZ056-057-062-063-064-067-068-250300-
SOUTH CENTRAL WISCONSIN

CITY           SKY/WX    TMP DP  RH WIND       PRES   REMARKS
REEDSBURG      NOT AVBL
BARABOO/DELLS  CLEAR     62  59  91 E7        30.14R
LONE ROCK      CLEAR     66  62  87 E6        30.11S
MINERAL POINT  CLEAR     66  64  94 E10       30.11R
MADISON        MOCLDY    64  61  90 E8        30.14S
MIDDLETON      PTCLDY    66  64  93 E9        30.15R
WATERTOWN      PTCLDY    62  62 100 E3        30.16R
MONROE         CLEAR     64  63  94 E8        30.13R
JANESVILLE     CLEAR     64  64 100 E7        30.12S
$$

WIZ051-052-058>065-066-070>072-250300-
SOUTHEAST WISCONSIN

CITY           SKY/WX    TMP DP  RH WIND       PRES   REMARKS
MILWAUKEE      PTCLDY    66  60  81 E7        30.16R
WAUKESHA       MOCLDY    61  57  88 E5        30.18R
MILWAUKEE/TIMM CLOUDY    64  55  72 CALM      30.18R
RACINE         CLOUDY    68  61  78 E8        30.17R
BURLINGTON     CLEAR     60  59  96 CALM      30.16R
KENOSHA        MOCLDY    64  61  90 E5        30.16R
FOND DU LAC    CLOUDY    63  57  81 E5        30.19R
SHEBOYGAN      CLOUDY    62  57  83 NE3       30.19R
WEST BEND      CLOUDY    61  55  82 CALM      30.18R
JUNEAU         PTCLDY    60  58  93 E3        30.19R
$$

LSZ147-162-250300-
LAKE SUPERIOR

STATION/POSITION TIME  TEMP    WIND        PRES    WAVE
                       AIR SEA DIR/SP/G            HT/PER
                 (UTC) (F)     (DEG/KT/KT) (MB)    (FT/S)
W MID LAKE BUOY  0150   64 63  110/ 14/ 16 1019.5F   2/ 4
DEVILS ISLAND    0200   62      90/  6/  8 1019.5R
SAXON HARBOR     0100   63     120/  2/  3 1019.3S
$$

LMZ867-665-643>646-250300-
LAKE MICHIGAN

STATION/POSITION TIME  TEMP    WIND        PRES    WAVE
                       AIR SEA DIR/SP/G            HT/PER
                 (UTC) (F)     (DEG/KT/KT) (MB)    (FT/S)
CHAMBERS ISLAND  0100   59     120/  2/  5 1022.0R
S GREEN BAY BUOY 0200   63 66   90/  6/  8 1022.3R
N MID LAKE BUOY  0150   65 67  110/ 12/ 14 1022.6R   2/ 3
NORTHPORT PIER   0100   64     120/  9/ 11 1022.4R
KEWAUNEE LAKESHO 0100   63     110/  6/  8 1021.6R
SHEBOYGAN LAKESH 0200   65      80/  6/  7 1022.0R
PORT WASHINGTON  0140   63      40/  4/  5 1022.4R
ATWATER BUOY     0200   65 62   80/  6/  8 1021.7R
MILWAUKEE LAKESH 0210   65      50/  5/  5   N/A
S MID LAKE BUOY  0150   70 72  100/ 16/ 19 1020.3R   2/ 4
KENOSHA   LAKESH 0200   68     100/  9/ 11 1020.7R
$$

TC  - TEMPERATURE IN CELSIUS
VSB - VISIBILITY IN STATUTE MILES
WCI - WIND CHILL INDEX
HX  - HEAT INDEX




USA.gov is the U.S. government's official web portal to all federal, state and local government web resources and services.